Location: Larkspur
(54.4391°N, 113.7691°W)
Time: 21:06:43
(UTC+00:00)

METEOR M2 - Pass Details

Date: 12 December 2023
Orbit: 819 x 826 km, 98.4° (Epoch: 04 March)

Event Time Altitude Azimuth Distance (km) Brightness Sun altitude
Rises 12:41:47 0° 20° (NNE) 3,372 ? -25.3°
Reaches altitude 10° 12:44:25 10° 31° (NNE) 2,433 ? -24.9°
Maximum altitude 12:49:11 31° 93° (E) 1,406 ? -24.2°
Drops below altitude 10° 12:53:54 10° 155° (SSE) 2,414 ? -23.6°
Sets 12:56:30 0° 166° (SSE) 3,341 ? -23.2°
